Weather Roundup
Issued by NWS

Home | Current Version | Previous Version | Text Only | Print | Product List | Glossary On
Versions: 1 2 3 4 5 6 7 8 9 10 11 12 13 14 15 16 17 18 19 20 21 22 23 24 25 26 27 28 29 30 31 32 33 34 35 36 37 38 39 40 41 42 43 44 45 46 47 48 49 50
765
NZUS99 KDVN 260610
HRRCWA
HOURLY WEATHER ROUNDUP
NATIONAL WEATHER SERVICE QUAD CITIES IA IL
100 AM CDT THU APR 26 2018

Note: "Fair" indicates few or no clouds below 12,000 feet with
no significant weather and/or obstructions to visibility.

* - These stations are not NWS stations and are not subject to NWS
quality control.  Some stations do not report weather such as fog
and some only report TMP and DP in whole degrees Celsius, which are
then converted to Fahrenheit.

...NORTHEAST IOWA..................................................

CITY           SKY/WX    TMP DP  RH WIND       PRES   REMARKS
DECORAH *      MOCLDY    45  28  53 CALM      29.95F
DUBUQUE        FAIR      43  29  57 CALM      29.97S
6HR MIN TEMP:  42; 6HR MAX TEMP:  60;

INDEPENDENCE * FAIR      41  32  70 N5        29.97F WCI  38
OELWEIN *      FAIR      41  34  75 N3        29.97F
WATERLOO       FAIR      37  31  78 CALM      29.97F
6HR MIN TEMP:  36; 6HR MAX TEMP:  59;


...SOUTHWEST AND SOUTH CENTRAL WISCONSIN...........................

CITY           SKY/WX    TMP DP  RH WIND       PRES   REMARKS
BOSCOBEL       FAIR      37  31  78 CALM      29.98S
6HR MIN TEMP:  36; 6HR MAX TEMP:  63;

JANESVILLE *   FAIR      37  30  75 CALM      29.99S
LONE ROCK      FAIR      35  30  82 CALM      29.97S
6HR MIN TEMP:  34; 6HR MAX TEMP:  60;

MINERAL POINT* FAIR      45  30  57 CALM      29.97S
MONROE *       FAIR      37  32  81 SE6       29.98R WCI  33
PRAIRIE DU CHI FAIR      39  28  63 E3        29.97F
6HR MIN TEMP:  39; 6HR MAX TEMP:  60;


...EAST CENTRAL IOWA...............................................

CITY           SKY/WX    TMP DP  RH WIND       PRES   REMARKS
CEDAR RAPIDS   FAIR      43  29  57 NW8       29.96S WCI  38
6HR MIN TEMP:  43; 6HR MAX TEMP:  63;

CLINTON *      FAIR      44  34  67 E7        29.98F WCI  40
6HR MIN TEMP:  40; 6HR MAX TEMP:  61;

DAVENPORT      FAIR      44  32  62 SE8       29.99S WCI  39
6HR MIN TEMP:  41; 6HR MAX TEMP:  61;

IOWA CITY      FAIR      43  31  62 CALM      29.98S
6HR MIN TEMP:  41; 6HR MAX TEMP:  64;

MARSHALLTOWN   CLEAR     41  33  73 N3        29.97F
6HR MIN TEMP:  39; 6HR MAX TEMP:  61;

MONTICELLO *   FAIR      37  32  81 CALM      29.97S
MUSCATINE *    FAIR      43  32  65 CALM      29.97S
NEWTON *       CLEAR     45  30  57 NE7       29.98S WCI  41
VINTON *       FAIR      42  32  69 CALM      29.98S
6HR MIN TEMP:  42; 6HR MAX TEMP:  64;


...NORTHWEST ILLINOIS..............................................

CITY           SKY/WX    TMP DP  RH WIND       PRES   REMARKS
FREEPORT *     FAIR      38  31  76 SE6       30.00F WCI  33
6HR MIN TEMP:  37; 6HR MAX TEMP:  58;

MOLINE         FAIR      41  33  73 E8        29.96F WCI  36
6HR MIN TEMP:  39; 6HR MAX TEMP:  64;

PERU *         FAIR      42  32  67 SE7       30.01F WCI  38
6HR MIN TEMP:  42; 6HR MAX TEMP:  64;

ROCHELLE *     FAIR      33  28  81 SE5       30.00F WCI  29
6HR MIN TEMP:  33; 6HR MAX TEMP:  58;

ROCKFORD       FAIR      37  29  72 S6        30.00F WCI  32
6HR MIN TEMP:  37; 6HR MAX TEMP:  58;

SAVANNA *      FAIR      41  33  72 S7        29.99S WCI  37
6HR MIN TEMP:  41; 6HR MAX TEMP:  62;

STERLING/R.F.* FAIR      37  31  78 E7        29.99F WCI  32
6HR MIN TEMP:  37; 6HR MAX TEMP:  62;


...SOUTHEAST IOWA AND NORTHEAST MISSOURI...........................

CITY           SKY/WX    TMP DP  RH WIND       PRES   REMARKS
BURLINGTON     CLEAR     45  34  65 CALM      29.96F
6HR MIN TEMP:  43; 6HR MAX TEMP:  62;

FAIRFIELD *    CLEAR     39  27  60 W6        29.96S WCI  35
FORT MADISON * CLEAR     48  37  66 S5        29.97F WCI  46
KEOKUK *       CLEAR     46  37  71 SW5       29.96F WCI  44
KIRKSVILLE     CLEAR     38  38 100 W5        29.98F FOG     WCI  34
6HR MIN TEMP:  38; 6HR MAX TEMP:  53;

MT PLEASANT *  CLEAR     41  32  70 SW5       29.96F WCI  38
OTTUMWA        CLEAR     43  29  57 NW7       29.97S WCI  39
6HR MIN TEMP:  42; 6HR MAX TEMP:  63;

WASHINGTON *   CLEAR     45  28  53 N7        29.98R WCI  41

...WESTERN ILLINOIS................................................

CITY           SKY/WX    TMP DP  RH WIND       PRES   REMARKS
GALESBURG *    FAIR      45  34  65 E5        29.98F WCI  43
6HR MIN TEMP:  41; 6HR MAX TEMP:  64;

MACOMB *       CLEAR     39  33  77 CALM      29.99S
6HR MIN TEMP:  38; 6HR MAX TEMP:  61;

PEORIA         FAIR      45  33  63 E7        30.00R WCI  41
6HR MIN TEMP:  45; 6HR MAX TEMP:  62;

QUINCY         CLEAR     47  38  71 W5        29.97S WCI  45
6HR MIN TEMP:  43; 6HR MAX TEMP:  59;


END...




USA.gov is the U.S. government's official web portal to all federal, state and local government web resources and services.